Regional Weather Roundup
Issued by NWS Goodland, KS

Home | Current Version | Previous Version | Text Only | Print | Product List | Glossary On
Versions: 1 2 3 4 5 6 7 8 9 10 11 12 13 14 15 16 17 18 19 20 21 22 23 24 25 26 27 28 29 30 31 32 33 34 35 36 37 38 39 40 41 42 43 44 45 46 47 48 49 50
000
ASUS43 KGLD 280659
RWRGLD

GOODLAND FORECAST AREA HOURLY WEATHER ROUNDUP
NATIONAL WEATHER SERVICE GOODLAND KS
100 AM MDT SUN MAY 28 2017

...OFFICIAL OBSERVATIONS...

CITY           SKY/WX    TMP DP  RH WIND       PRES   REMARKS
GOODLAND KS    CLEAR     48  45  89 W9        30.14F
HILL CITY KS   CLEAR     54  51  90 NW7       30.05F
IMPERIAL NEB   CLEAR     50  42  74 W12       30.11F
MCCOOK NEB     CLEAR     49  49 100 SW7       30.07F
AKRON CO       CLEAR     45  41  86 W10       30.20F
BURLINGTON CO  CLEAR     47  44  90 NW9       30.17F
LIMON CO       CLEAR     42  40  92 W9        30.25S
$$

...UNOFFICIAL OBSERVATIONS...

CITY           SKY/WX    TMP DP  RH WIND       PRES   REMARKS
LENORA KS        N/A     53  32  45 MISG        N/A
NORTON KS      CLEAR     54  46  76 NW9       30.05F
SHARON SPRINGS   N/A     49  47  92 NW12        N/A
TRENTON NEB      N/A     55  32  41 W6          N/A
$$




USA.gov is the U.S. government's official web portal to all federal, state and local government web resources and services.